Home > Weather > Rouen > Past weeks

Flag for France Past Weather in Rouen, Upper Normandy, France — Yesterday and Last 2 Weeks

Now
68 °F

Light rain. Mostly cloudy.


Feels Like: 68 °F
Forecast: 60 / 71 °F
Wind: 10 mph from West

Location: Rouen Airport

Current Time: Jul 27, 2016 at 5:31:31 PM

Latest Report: Jul 27, 2016 at 5:00 PM


Visibility: N/A

Pressure: 30.09 "Hg

Humidity: 78%

Dew Point: 61 °F

Location of RouenLocation

Past Weather in Rouen — Graph

°F

Rouen Temperature Yesterday

Maximum temperature yesterday: 70 °F (at 5:00 PM)
Minimum temperature yesterday: 50 °F (at 6:30 AM)
Average temperature yesterday: 60 °F

High & Low Weather Summary for the Past Weeks

 TemperatureHumidityPressure
High93 °F (Jul 19, 3:30 PM)100% (Jul 15, 5:00 AM)30.36 "Hg (Jul 15, 5:00 AM)
Low46 °F (Jul 15, 5:00 AM)34% (Jul 19, 2:30 PM)29.86 "Hg (Jul 20, 4:00 AM)
Average66 °F72%30.14 "Hg
* Reported Jul 12 4:00 PM — Jul 27 4:30 PM, Rouen, Weather by CustomWeather, © 2016

Note: Actual official high and low records may vary slightly from our data, if they occured in-between our weather recording intervals... More about our weather records

Advertising

Rouen Weather History for the Previous 24 Hours

Scroll right to see more
 ConditionsComfort  
Time TempWeatherWind HumidityBarometerVisibility
4:30 PM
Wed, Jul 27
70 °FOvercast.8 mph69%30.07 "HgN/A
4:00 PM72 °FPartly sunny.9 mph61%30.09 "HgN/A
3:30 PM72 °FMostly cloudy.10 mph65%30.09 "HgN/A
3:00 PM70 °FOvercast.8 mph69%30.09 "HgN/A
2:30 PM70 °FOvercast.7 mph64%30.09 "HgN/A
2:00 PM68 °FOvercast.8 mph73%30.09 "HgN/A
1:30 PM66 °FOvercast.8 mph73%30.09 "HgN/A
1:00 PM66 °FMostly cloudy.10 mph73%30.09 "HgN/A
12:30 PM64 °FMostly cloudy.8 mph73%30.12 "HgN/A
12:00 PM66 °FMostly cloudy.10 mph73%30.12 "HgN/A
11:30 AM66 °FCloudy.9 mph73%30.12 "HgN/A
11:00 AM64 °FMostly cloudy.9 mph78%30.12 "HgN/A
10:30 AM63 °FMore clouds than sun.7 mph77%30.12 "HgN/A
10:00 AM61 °FMostly cloudy.5 mph83%30.12 "HgN/A
9:30 AM59 °FMostly cloudy.7 mph88%30.12 "HgN/A
9:00 AM59 °FBroken clouds.6 mph88%30.12 "HgN/A
8:30 AM57 °FBroken clouds.5 mph94%30.12 "HgN/A
8:00 AM55 °FOvercast.3 mph100%30.12 "HgN/A
7:30 AM55 °FPartly sunny.3 mph94%30.12 "HgN/A
7:00 AM54 °FClear.3 mph94%30.12 "Hg10 mi
6:30 AM54 °FClear.3 mph94%30.12 "Hg10 mi
6:00 AM54 °FPassing clouds.3 mph94%30.12 "Hg6 mi
5:30 AM52 °FPartly cloudy.3 mph100%30.12 "Hg5 mi
5:00 AM52 °FClear.3 mph94%30.12 "Hg10 mi
4:30 AM52 °FClear.3 mph94%30.12 "Hg10 mi
4:00 AM52 °FClear.3 mph94%30.15 "Hg10 mi
3:30 AM52 °FClear.2 mph94%30.15 "Hg10 mi
3:00 AM52 °FClear.3 mph94%30.15 "Hg10 mi
2:30 AM52 °FPassing clouds.2 mph94%30.15 "HgN/A
2:00 AM54 °FPassing clouds.3 mph88%30.18 "HgN/A
1:30 AM54 °FPassing clouds.3 mph88%30.18 "HgN/A
1:00 AM54 °FClear.2 mph94%30.18 "Hg10 mi
12:30 AM54 °FClear.2 mph94%30.18 "Hg10 mi
12:00 AM54 °FClear.3 mph94%30.18 "Hg10 mi
11:30 PM
Tue, Jul 26
54 °FClear.3 mph88%30.18 "Hg10 mi
11:00 PM54 °FClear.2 mph88%30.18 "Hg10 mi
10:30 PM55 °FSunny.3 mph82%30.18 "Hg10 mi
10:00 PM59 °FRain. Passing clouds.3 mph72%30.18 "HgN/A
9:30 PM61 °FScattered clouds.7 mph72%30.18 "HgN/A
9:00 PM63 °FPartly sunny.7 mph68%30.18 "HgN/A
8:30 PM63 °FPartly sunny.7 mph68%30.18 "HgN/A
8:00 PM64 °FPartly sunny.8 mph64%30.18 "HgN/A
7:30 PM66 °FOvercast.8 mph64%30.18 "HgN/A
7:00 PM66 °FOvercast.10 mph60%30.18 "HgN/A
6:30 PM66 °FOvercast.8 mph60%30.18 "HgN/A
6:00 PM66 °FPartly sunny.10 mph60%30.18 "HgN/A
5:30 PM68 °FScattered clouds.12 mph60%30.18 "HgN/A
5:00 PM70 °FMostly cloudy.9 mph60%30.18 "HgN/A
Weather by CustomWeather, © 2016

See weather overviewHow to use our weather pages